Find Starlink 30959

NORAD ID: 58442 Int'l Des: 2023-183 Owner: SPXS Country: US Constellation: starlink operational
LEOCIRCULAR

实时位置

正在加载3D地球...

关于 Starlink 30959

正在加载描述...

即将过境

Passes for default location (London). Set your location on the main map for personalized predictions.

高度历史

Loading altitude history...

两行轨道根数

1 58442U 23183F 26125.22260105 .00001365 00000-0 59132-4 0 9993
2 58442 43.0036 82.0638 0001266 270.9632 89.1075 15.27581371135382
Epoch: May 5, 2026 • Age: 24 hours

当前状态

高度 482.8 km
速度 7.63 km/s
星下点 21.20°N, 161.55°E
发射日期 Nov 28, 2023
运行时间 2.4 years
类型 internet

技术详情

分类 Payload
质量 730.00 kg
干质量 700.00 kg
总质量 730.00 kg
长度 0.30 m
直径 4.10 m
跨度 29.00 m
形状 Box + pan
制造商 SPXS
平台类型 Starlink V2M
阶段状态 In Orbit
所有者/国家 SPXS/US

Most Searched